990  
ASUS44 KMOB 040513  
RWRMOB  
REGIONAL WEATHER ROUNDUP  
NATIONAL WEATHER SERVICE MOBILE AL  
1200 AM CDT SAT JUL 04 2020  
 
NOTE: "FAIR" INDICATES FEW OR NO CLOUDS BELOW 12,000 FEET WITH NO  
SIGNIFICANT WEATHER AND/OR S TO VISIBILITY
.  
 
* THESE STATIONS ARE PART OF THE UNIVERSITY OF SOUTH ALABAMA  
MESONET AND ARE NOT UNDER NWS OR FAA QUALITY CONTROL.
 
 
ALZ061>064-040600-  
COASTAL ALABAMA  
 
CITY SKY/WX TMP DP RH WIND PRES REMARKS
 
MOBILE REG APT MOCLDY 73 73 100 NW3 29.93R  
BROOKLEY FIELD MOCLDY 78 73 84 NW3 29.93S  
USA CAMPUS* N/A 73 73 100 NW2 N/A  
DOG RIVER* N/A 75 70 83 NW3 29.94R  
 
 
CITY SKY/WX TMP DP RH WIND PRES REMARKS
 
GULF SHORES MOCLDY 76 72 88 CALM 29.92S  
 

 
 
ALZ051>060-040600-  
INTERIOR SOUTHWEST AND SOUTH CENTRAL ALABAMA  
 
CITY SKY/WX TMP DP RH WIND PRES REMARKS
 
GREENVILLE MOCLDY 74 70 87 CALM 29.92F  
EVERGREEN MOCLDY 74 71 91 CALM 29.93F  
ATMORE* N/A N/A N/A N/A CALM 29.94R  
ANDALUSIA/OPP CLOUDY 77 71 82 CALM 29.91F  
ANDALUSIA* N/A N/A N/A N/A CALM 29.93S  
FLORALA APT NOT AVBL  
FLORALA* N/A 75 72 88 CALM 29.92F  
 

 
 
FLZ001>006-040600-  
WESTERN FLORIDA PANHANDLE  
 
CITY SKY/WX TMP DP RH WIND PRES REMARKS
 
PENSACOLA MOCLDY 77 70 79 N5 29.90F  
NAS PENSACOLA MOCLDY 78 72 81 N3 29.90  
MILTON MOCLDY 72 71 97 W5 29.90F  
WHTNG S FIELD MOCLDY 73 71 93 W5 29.90F  
 
 
CITY SKY/WX TMP DP RH WIND PRES REMARKS
 
JAY* N/A 72 70 94 CALM 29.94F  
DUKE FIELD MOCLDY 76 73 90 CALM 29.89F  
CRESTVIEW MOCLDY 77 73 87 CALM 29.91F  
VALPARAISO MOCLDY 78 74 85 CALM 29.89F  
DESTIN MOCLDY 81 75 82 CALM 29.89F  
 

 
 
MSZ076-079-040600-  
INTERIOR SOUTHEAST MISSISSIPPI  
 
CITY SKY/WX TMP DP RH WIND PRES REMARKS
 
LEAKESVILLE* NOT AVBL  
AGRICOLA* NOT AVBL  
 

 
 
MARINE OBSERVATIONS  
 
STATION/POSITION TIME TEMP WIND PRES WAVE
 
AIR SEA DIR/SP/G HT/PER  
(UTC) (F) (DEG/KT/KT) (MB) (FT/S)  
PETIT BOIS ISLND 0430 81 350/ 13/ 17 1013.5R  
GRAND BAY 0345 78 340/ 7 1014.0S  
KATRINA CUT 0430 -39 360/ 9 1013.5R  
CEDAR POINT 0430 79 340/ 7 1013.2R  
E DAUPHIN ISLAND 0500 82 10/ 8/ 9 1012.8F  
USCG MOBILE BAY 0430 84 20/ 4/ 5 1013.5R  
STATE DOCKS 0430 78 85 1013.4R  
WEEKS BAY 0345 78 1013.0S  
FORT MORGAN 0430 82 340/ 12/ 14 1012.9R  
12 S ORANGE BCH 0500 81 70/ 6/ 8 1012.8  
PENSACOLA BAY 0430 79 86 20/ 3/ 6 1013.0F  
64 S DAUPHIN ISL 0450 83 300/ 10/ 12 1013.6S 2/ 4  
 

 
 
SELECTED LOCATIONS ACROSS THE REGION  
 
CITY SKY/WX TMP DP RH WIND PRES REMARKS
 
NEW ORLEANS MOCLDY 78 74 87 CALM 29.94F  
GULFPORT PTCLDY 78 73 84 NW8 29.92R  
PASCAGOULA AP MOCLDY 77 72 84 NE5 29.91F  
PASCAGOULA* N/A 77 72 83 CALM 29.91  
HATTIESBURG MOCLDY 76 70 82 W3 29.95R  
LAUREL PTCLDY 74 73 97 SE7 29.96S  
MERIDIAN CLOUDY 79 70 74 CALM 29.94R  
JACKSON CLEAR 77 73 87 CALM 29.94F  
MONTGOMERY MOCLDY 75 72 90 CALM 29.93S  
TROY MOCLDY 76 72 87 CALM 29.94S  
ASHFORD* N/A N/A N/A N/A CALM 29.93S  
DOTHAN CLOUDY 74 73 97 CALM 29.95F  
PANAMA CITY PTCLDY 73 70 90 E3 29.89F  
 

 
 
 
 
CLICK HERE TO GO TO PREVIOUS BULLETINS.

The Nexlab AL Page
The Nexlab FL Page
The Nexlab MS Page Main Text Page